Home   Weather   Wernigerode   Past weeks

Flag for Germany Past Weather in Wernigerode, Saxony-Anhalt, Germany — Yesterday and Last 2 Weeks

Now
28 °F

Low clouds.


Feels Like: 25 °F
Forecast: 18 / 27 °F
Wind: 3 mph from North

Location: Braunschweig Wolfsburg

Current Time: Jan 23, 2017 at 4:20:04 pm

Latest Report: Jan 23, 2017 at 3:20 pm


Visibility: 4 mi

Pressure: 30.27 "Hg

Humidity: 100%

Dew Point: 28 °F

Location of WernigerodeLocation

Past Weather in Wernigerode — Graph

°F

Wernigerode Temperature Yesterday

Maximum temperature yesterday: 28 °F (at 2:20 pm)
Minimum temperature yesterday: 23 °F (at 6:50 pm)
Average temperature yesterday: 26 °F

High & Low Weather Summary for the Past Weeks

 TemperatureHumidityPressure
High43 °F (Jan 12, 12:50 pm)100% (Jan 8, 3:20 pm)30.74 "Hg (Jan 8, 3:20 pm)
Low21 °F (Jan 16, 6:50 am)56% (Jan 20, 12:50 pm)28.94 "Hg (Jan 13, 6:50 am)
Average32 °F88%30.14 "Hg
* Reported Jan 8 3:20 pm — Jan 23 3:20 pm, Wernigerode, Weather by CustomWeather, © 2017

Note: Actual official high and low records may vary slightly from our data, if they occured in-between our weather recording intervals... More about our weather records

Advertising

Wernigerode Weather History for the Previous 24 Hours

Scroll right to see more
 ConditionsComfort  
Time TempWeatherWind HumidityBarometerVisibility
3:20 pm
Mon, Jan 23
28 °FLow clouds.3 mph100%30.27 "Hg4 mi
2:20 pm28 °FIce fog.6 mph100%30.27 "Hg3 mi
1:20 pm28 °FIce fog.5 mph93%30.27 "Hg3 mi
12:20 pm27 °FLow clouds.6 mph100%30.27 "Hg4 mi
11:20 am27 °FIce fog.5 mph100%30.30 "Hg2 mi
10:50 am27 °FIce fog.5 mph100%30.30 "Hg2 mi
10:20 am27 °FIce fog.5 mph100%30.30 "Hg2 mi
9:50 am27 °FIce fog.5 mph100%30.30 "Hg1 mi
9:20 am27 °FIce fog.5 mph100%30.27 "Hg1 mi
8:20 am25 °FIce fog.5 mph100%30.27 "Hg1 mi
7:50 am25 °FSnow. Overcast.5 mph100%30.27 "Hg1 mi
7:20 am25 °FIce fog.7 mph100%30.27 "Hg1 mi
6:50 am25 °FIce fog.6 mph100%30.27 "Hg1 mi
6:50 pm
Sun, Jan 22
23 °FIce fog.3 mph100%30.30 "Hg2 mi
6:20 pm25 °FIce fog.2 mph93%30.30 "Hg3 mi
5:50 pm27 °FIce fog.5 mph93%30.30 "Hg3 mi
5:20 pm27 °FIce fog.5 mph100%30.30 "Hg3 mi
4:20 pm27 °FIce fog.5 mph100%30.30 "Hg2 mi
Weather by CustomWeather, © 2017

See weather overviewHow to use our weather pages